Lid_Strength_Index
0 1 1 1 1 2 2 2 3 2 2 2 1 1 1 1 1 3 5 3 2 -2 -2 3 3 4 5 7 6 9 12 14 13 12 10 7 9 6 4 6 6 6 6 4 2
0 0 1 1 2 2 2 2 3 3 2 2 1 1 1 1 4 5 2 -2 -2 -3 2 4 4 5 8 8 8 9 12 12 9 9 10 8 8 7 7 7 7 7 4 3 2
0 1 1 1 1 2 2 3 3 3 2 2 1 1 1 2 6 4 -2 -2 -3 -3 3 3 4 5 9 9 8 9 11 8 8 7 7 8 8 6 8 10 7 8 6 4 3
1 1 1 1 1 2 2 3 3 3 2 2 1 1 1 3 9 4 -2 -1 -3 1 3 5 6 7 9 9 8 10 8 6 7 6 7 8 6 7 8 7 5 5 4 4 4
1 2 2 2 2 2 2 3 3 3 2 2 1 2 4 5 5 0 -1 -2 1 2 4 5 5 6 9 8 8 10 7 6 6 6 6 6 7 7 8 5 4 4 4 4 4
2 2 2 2 2 2 2 3 3 3 2 2 2 2 5 7 1 0 1 2 3 4 4 4 5 5 7 8 9 7 7 7 6 6 6 8 7 7 7 5 5 5 5 4 4
2 2 2 2 2 3 3 3 3 3 2 2 2 4 5 7 2 1 2 3 4 4 5 3 4 6 5 7 6 7 8 8 7 7 7 6 9 9 6 5 6 6 5 5 4
2 2 3 3 3 3 3 3 3 2 2 2 2 5 7 1 2 3 3 4 3 4 4 3 3 5 6 6 7 9 9 12 8 7 7 8 12 8 7 6 7 6 6 5 4
2 2 2 3 3 3 3 3 3 2 2 2 5 5 7 0 2 2 2 4 4 4 4 2 4 6 6 9 11 11 14 12 10 7 7 9 11 8 7 6 7 7 7 5 5
2 2 3 3 3 4 4 3 3 3 3 3 4 7 5 5 2 3 3 3 4 5 5 5 7 9 10 11 14 13 13 13 11 9 8 10 11 8 7 7 7 7 7 7 5
3 2 3 3 3 4 5 6 6 7 6 8 8 6 5 3 2 4 3 4 4 6 9 7 10 12 11 9 8 9 10 12 12 9 10 10 10 9 8 7 7 7 6 6 5
3 3 3 3 3 4 5 7 5 5 8 4 5 5 3 3 6 4 3 6 6 9 8 10 11 9 7 7 8 9 11 11 10 9 10 11 11 9 8 7 6 7 7 6 5
3 3 2 3 3 5 6 6 3 3 8 6 4 5 4 4 6 6 4 6 7 9 9 11 9 7 7 8 10 10 11 11 11 11 11 11 13 11 8 7 7 6 6 5 5
3 3 4 4 6 5 6 3 3 4 12 9 7 5 4 5 6 4 4 6 7 9 9 9 7 8 9 9 9 12 9 9 10 12 15 12 16 11 10 9 8 7 7 6 5
3 3 4 5 5 5 3 3 4 4 19 8 7 3 5 6 6 6 4 5 8 8 9 10 9 9 9 9 8 10 8 9 10 12 13 12 14 12 10 10 9 8 6 7 6
2 3 4 4 4 5 3 3 3 13 19 10 7 7 7 6 6 6 6 5 5 8 8 9 8 8 8 7 8 8 9 9 11 12 17 13 14 14 11 10 8 7 6 6 6
2 2 3 2 5 3 2 4 14 17 8 10 9 7 8 8 7 7 8 9 10 12 12 10 9 8 7 9 8 9 12 16 17 18 18 12 14 12 10 8 8 8 7 6 5
2 1 2 2 2 2 2 9 17 12 11 7 8 8 9 8 8 8 9 11 10 10 12 13 15 10 7 9 10 10 12 16 19 20 17 13 16 12 8 7 7 7 7 6 6
1 3 3 3 2 2 7 14 14 12 8 9 9 10 10 9 9 9 10 10 9 9 12 14 13 8 8 7 8 11 13 10 15 15 18 15 12 9 8 8 8 7 7 7 6
2 3 4 1 2 3 9 13 11 8 7 8 11 10 12 10 10 11 10 9 9 8 7 10 14 9 8 7 8 9 9 14 14 20 21 15 15 14 11 10 9 8 8 7 7
3 6 3 1 2 7 12 12 9 6 7 9 10 10 10 10 10 11 10 9 8 8 7 9 11 12 9 10 11 11 12 11 12 15 18 20 16 12 10 9 9 8 7 7 7
4 9 2 0 9 9 11 9 9 8 6 8 8 9 10 9 10 10 10 9 6 7 10 9 11 15 12 8 8 9 10 11 17 16 16 17 16 10 9 8 8 7 6 6 6
6 6 2 2 12 13 10 9 8 8 8 8 9 8 8 9 11 9 9 7 7 7 9 8 12 16 14 11 9 11 10 10 11 15 16 19 16 9 10 9 8 8 7 6 6
6 10 7 5 7 11 11 10 10 6 8 7 8 8 9 9 8 10 10 8 7 7 7 7 11 13 16 13 11 13 11 11 12 16 16 16 13 10 10 10 9 8 7 7 6
6 8 7 11 10 10 10 9 11 10 7 7 9 9 10 11 11 10 10 9 8 8 8 9 12 12 11 10 10 11 11 11 12 12 15 13 12 10 10 9 9 8 8 7 7
7 8 7 9 8 9 10 11 10 9 8 9 10 9 8 11 9 11 10 10 10 9 9 9 13 13 14 11 11 12 11 11 11 11 12 12 12 10 9 9 9 9 8 8 8
4 4 6 8 9 10 10 10 9 7 7 7 7 8 9 8 7 7 7 7 8 9 10 11 13 15 16 13 13 16 13 11 11 11 11 14 12 10 10 9 9 8 8 8 7